GXA128 CYNR-CYYC

Flight info

Callsign GXA128
Flight time 0h 56m
Altitude 36000
Route TAGIT4 TAGIT DCT ETMAR DCT KERBO DCT SELUM DCT OLIMI Q814 ADVOX
Aircraft A321/M-SDE3FGHIRWY/LB1

Departure

Time 2026-05-06 00:53
Airport Fort Mackay / Horizon Airport (CYNR)

Arrival

Time 2026-05-06 01:49
Airport Calgary International Airport (CYYC)
Time Latitude Longitude Altitude Speed Heading
2026-05-06 00:31 57.37801 -111.69851 922 ft 0 kts 277°
2026-05-06 00:48 57.37804 -111.69855 922 ft 1 kts 307°
2026-05-06 00:49 57.37830 -111.69901 920 ft 9 kts 301°
2026-05-06 00:49 57.37845 -111.70035 924 ft 11 kts 277°
2026-05-06 00:49 57.37869 -111.70174 924 ft 11 kts 330°
2026-05-06 00:49 57.37971 -111.70154 921 ft 19 kts
2026-05-06 00:50 57.38115 -111.70119 925 ft 22 kts
2026-05-06 00:50 57.38283 -111.70079 918 ft 26 kts
2026-05-06 00:50 57.38469 -111.70033 916 ft 28 kts
2026-05-06 00:50 57.38646 -111.69986 917 ft 26 kts
2026-05-06 00:51 57.38814 -111.69947 924 ft 21 kts 11°
2026-05-06 00:51 57.38926 -111.69905 922 ft 8 kts
2026-05-06 00:51 57.38943 -111.69919 924 ft 1 kts 277°
2026-05-06 00:51 57.38933 -111.69923 922 ft 3 kts 186°
2026-05-06 00:52 57.38929 -111.69924 922 ft 0 kts 188°
2026-05-06 00:52 57.38926 -111.69925 922 ft 6 kts 188°
2026-05-06 00:52 57.38564 -111.70012 917 ft 100 kts 187°
2026-05-06 00:53 57.37625 -111.70236 1112 ft 156 kts 186°
2026-05-06 00:53 57.36524 -111.70481 2156 ft 163 kts 185°
2026-05-06 00:53 57.35387 -111.70736 3090 ft 165 kts 186°
2026-05-06 00:53 57.34189 -111.71021 3517 ft 184 kts 185°
2026-05-06 00:54 57.32841 -111.71351 3838 ft 206 kts 187°
2026-05-06 00:54 57.31380 -111.71712 4282 ft 216 kts 187°
2026-05-06 00:54 57.29926 -111.72508 4909 ft 222 kts 216°
2026-05-06 00:54 57.28926 -111.74673 5684 ft 224 kts 239°
2026-05-06 00:55 57.27997 -111.77144 6167 ft 246 kts 236°
2026-05-06 00:55 57.26923 -111.79787 6597 ft 266 kts 234°
2026-05-06 00:55 57.25754 -111.82501 7284 ft 273 kts 233°
2026-05-06 00:55 57.24516 -111.85266 8074 ft 277 kts 232°
2026-05-06 00:56 57.23277 -111.87967 8855 ft 281 kts 231°
2026-05-06 00:56 57.21996 -111.90721 9633 ft 285 kts 231°
2026-05-06 00:56 57.20690 -111.93508 10393 ft 289 kts 231°
2026-05-06 00:56 57.19362 -111.96333 11077 ft 293 kts 231°
2026-05-06 00:57 57.18014 -111.99197 11608 ft 305 kts 231°
2026-05-06 00:57 57.16576 -112.02267 11772 ft 328 kts 231°
2026-05-06 00:57 57.15032 -112.05546 11922 ft 349 kts 229°
2026-05-06 00:57 57.13059 -112.08281 12312 ft 365 kts 207°
2026-05-06 00:58 57.10613 -112.09793 12617 ft 380 kts 197°
2026-05-06 00:58 57.08053 -112.11049 13147 ft 386 kts 196°
2026-05-06 00:58 57.05435 -112.12274 13763 ft 390 kts 195°
2026-05-06 00:58 57.02794 -112.13493 14358 ft 393 kts 195°
2026-05-06 00:59 57.00117 -112.14732 14807 ft 400 kts 196°
2026-05-06 00:59 56.97396 -112.16008 15225 ft 407 kts 196°
2026-05-06 00:59 56.94627 -112.17325 15633 ft 414 kts 197°
2026-05-06 00:59 56.91816 -112.18676 16053 ft 421 kts 197°
2026-05-06 01:00 56.88958 -112.20051 16475 ft 429 kts 197°
2026-05-06 01:00 56.86050 -112.21444 16849 ft 436 kts 197°
2026-05-06 01:00 56.83093 -112.22853 17278 ft 441 kts 197°
2026-05-06 01:00 56.80104 -112.24273 17703 ft 447 kts 197°
2026-05-06 01:01 56.77075 -112.25711 18109 ft 452 kts 197°
2026-05-06 01:01 56.74016 -112.27158 18521 ft 457 kts 197°
2026-05-06 01:01 56.70925 -112.28616 18905 ft 461 kts 197°
2026-05-06 01:01 56.67810 -112.30088 19341 ft 463 kts 197°
2026-05-06 01:02 56.64684 -112.31571 19776 ft 466 kts 198°
2026-05-06 01:02 56.61542 -112.33061 20217 ft 468 kts 198°
2026-05-06 01:02 56.58386 -112.34559 20636 ft 470 kts 198°
2026-05-06 01:02 56.55209 -112.36065 21106 ft 473 kts 198°
2026-05-06 01:03 56.52020 -112.37575 21551 ft 475 kts 198°
2026-05-06 01:03 56.48813 -112.39088 21978 ft 478 kts 198°
2026-05-06 01:03 56.45589 -112.40605 22407 ft 480 kts 198°
2026-05-06 01:03 56.42349 -112.42127 22830 ft 483 kts 198°
2026-05-06 01:04 56.39087 -112.43655 23175 ft 485 kts 198°
2026-05-06 01:04 56.35818 -112.45180 23671 ft 485 kts 198°
2026-05-06 01:04 56.32539 -112.46709 24033 ft 487 kts 198°
2026-05-06 01:04 56.29252 -112.48244 24357 ft 490 kts 198°
2026-05-06 01:05 56.25982 -112.49769 24670 ft 493 kts 198°
2026-05-06 01:05 56.22652 -112.51316 24968 ft 496 kts 198°
2026-05-06 01:05 56.19300 -112.52863 25274 ft 499 kts 198°
2026-05-06 01:05 56.15928 -112.54416 25577 ft 501 kts 198°
2026-05-06 01:06 56.12542 -112.55975 25877 ft 504 kts 198°
2026-05-06 01:06 56.09130 -112.57544 26152 ft 509 kts 198°
2026-05-06 01:06 56.05692 -112.59121 26439 ft 512 kts 198°
2026-05-06 01:06 56.02226 -112.60708 26727 ft 515 kts 198°
2026-05-06 01:07 55.98747 -112.62294 27009 ft 518 kts 198°
2026-05-06 01:07 55.95248 -112.63884 27276 ft 520 kts 198°
2026-05-06 01:07 55.91734 -112.65480 27547 ft 523 kts 198°
2026-05-06 01:07 55.88200 -112.67084 27810 ft 525 kts 198°
2026-05-06 01:08 55.84652 -112.68693 28038 ft 527 kts 198°
2026-05-06 01:08 55.81088 -112.70308 28292 ft 530 kts 198°
2026-05-06 01:08 55.77505 -112.71932 28457 ft 533 kts 198°
2026-05-06 01:08 55.73905 -112.73558 28678 ft 535 kts 198°
2026-05-06 01:09 55.70298 -112.75180 28977 ft 535 kts 198°
2026-05-06 01:09 55.66687 -112.76798 29278 ft 535 kts 198°
2026-05-06 01:09 55.63079 -112.78409 29584 ft 535 kts 198°
2026-05-06 01:09 55.59467 -112.80016 29881 ft 535 kts 198°
2026-05-06 01:10 55.55853 -112.81620 30181 ft 535 kts 198°
2026-05-06 01:10 55.52240 -112.83231 30446 ft 535 kts 198°
2026-05-06 01:10 55.48644 -112.84878 30693 ft 534 kts 199°
2026-05-06 01:10 55.45061 -112.86623 30944 ft 533 kts 200°
2026-05-06 01:11 55.41499 -112.88446 31193 ft 533 kts 201°
2026-05-06 01:11 55.37945 -112.90304 31450 ft 533 kts 201°
2026-05-06 01:11 55.34394 -112.92158 31703 ft 533 kts 201°
2026-05-06 01:11 55.30838 -112.93987 31961 ft 533 kts 201°
2026-05-06 01:12 55.28476 -112.95182 32129 ft 533 kts 201°
2026-05-06 01:12 55.24905 -112.96965 32383 ft 533 kts 201°
2026-05-06 01:12 55.21342 -112.98728 32636 ft 533 kts 200°
2026-05-06 01:12 55.17767 -113.00489 32903 ft 534 kts 200°
2026-05-06 01:13 55.14187 -113.02255 33107 ft 535 kts 201°
2026-05-06 01:13 55.10605 -113.04023 33337 ft 535 kts 201°
2026-05-06 01:13 55.07021 -113.05789 33532 ft 535 kts 201°
2026-05-06 01:13 55.03442 -113.07554 33813 ft 534 kts 201°
2026-05-06 01:14 54.96295 -113.11078 34306 ft 533 kts 201°
2026-05-06 01:14 54.92728 -113.12826 34522 ft 533 kts 201°
2026-05-06 01:14 54.89154 -113.14563 34724 ft 533 kts 200°
2026-05-06 01:15 54.85575 -113.16298 34926 ft 534 kts 200°
2026-05-06 01:15 54.81995 -113.18036 35117 ft 534 kts 200°
2026-05-06 01:15 54.78420 -113.19772 35328 ft 534 kts 200°
2026-05-06 01:15 54.74841 -113.21513 35536 ft 534 kts 200°
2026-05-06 01:16 54.71270 -113.23250 35753 ft 534 kts 200°
2026-05-06 01:16 54.67698 -113.24985 35968 ft 533 kts 200°
2026-05-06 01:16 54.64121 -113.26716 36125 ft 533 kts 200°
2026-05-06 01:16 54.60547 -113.28441 36215 ft 532 kts 200°
2026-05-06 01:17 54.53413 -113.31865 36227 ft 532 kts 200°
2026-05-06 01:17 54.46277 -113.35277 36227 ft 532 kts 200°
2026-05-06 01:18 54.39138 -113.38684 36232 ft 532 kts 200°
2026-05-06 01:18 54.32052 -113.42052 36230 ft 532 kts 200°
2026-05-06 01:19 54.24900 -113.45450 36254 ft 533 kts 200°
2026-05-06 01:19 54.17740 -113.48830 36218 ft 534 kts 200°
2026-05-06 01:20 54.10569 -113.52211 36234 ft 535 kts 200°
2026-05-06 01:20 54.03389 -113.55566 36254 ft 536 kts 200°
2026-05-06 01:21 53.96200 -113.58924 36265 ft 536 kts 200°
2026-05-06 01:21 53.89000 -113.62278 36263 ft 536 kts 200°
2026-05-06 01:22 53.81797 -113.65611 36205 ft 537 kts 200°
2026-05-06 01:22 53.74584 -113.68940 36159 ft 537 kts 200°
2026-05-06 01:23 53.67373 -113.72254 36159 ft 537 kts 200°
2026-05-06 01:23 53.60166 -113.75567 36163 ft 537 kts 200°
2026-05-06 01:24 53.52943 -113.78868 36182 ft 537 kts 200°
2026-05-06 01:24 53.45727 -113.82154 36202 ft 537 kts 200°
2026-05-06 01:25 53.38514 -113.85433 36168 ft 537 kts 200°
2026-05-06 01:25 53.31307 -113.88687 36196 ft 537 kts 199°
2026-05-06 01:26 53.24150 -113.91919 36204 ft 536 kts 200°
2026-05-06 01:26 53.16949 -113.95175 36208 ft 536 kts 199°
2026-05-06 01:27 53.09733 -113.98401 36223 ft 536 kts 199°
2026-05-06 01:27 53.02520 -114.01611 36239 ft 537 kts 199°
2026-05-06 01:28 52.95305 -114.04814 36206 ft 537 kts 199°
2026-05-06 01:28 52.88088 -114.08015 36228 ft 537 kts 199°
2026-05-06 01:29 52.80881 -114.11207 36214 ft 536 kts 200°
2026-05-06 01:29 52.73764 -114.14822 36237 ft 534 kts 203°
2026-05-06 01:30 52.66750 -114.18827 36208 ft 534 kts 204°
2026-05-06 01:30 52.59721 -114.22820 36183 ft 534 kts 204°
2026-05-06 01:31 52.52652 -114.26651 36208 ft 535 kts 202°
2026-05-06 01:31 52.45574 -114.30404 36230 ft 535 kts 202°
2026-05-06 01:32 52.38509 -114.34168 35917 ft 534 kts 202°
2026-05-06 01:32 52.34981 -114.36055 35674 ft 533 kts 203°
2026-05-06 01:32 52.31398 -114.37728 35079 ft 540 kts 193°
2026-05-06 01:33 52.27622 -114.38122 34138 ft 550 kts 176°
2026-05-06 01:33 52.23795 -114.37475 33052 ft 555 kts 173°
2026-05-06 01:33 52.19960 -114.36752 31986 ft 557 kts 174°
2026-05-06 01:33 52.16098 -114.36025 30981 ft 561 kts 173°
2026-05-06 01:34 52.12219 -114.35304 30164 ft 558 kts 174°
2026-05-06 01:34 52.08356 -114.34591 29015 ft 559 kts 174°
2026-05-06 01:34 52.04554 -114.33893 27808 ft 555 kts 174°
2026-05-06 01:34 52.00724 -114.33199 26173 ft 553 kts 174°
2026-05-06 01:35 51.96910 -114.32515 24899 ft 546 kts 174°
2026-05-06 01:35 51.93199 -114.31847 24123 ft 527 kts 174°
2026-05-06 01:35 51.89600 -114.31201 23135 ft 514 kts 173°
2026-05-06 01:35 51.86101 -114.30575 22329 ft 498 kts 173°
2026-05-06 01:36 51.82708 -114.29968 21530 ft 483 kts 173°
2026-05-06 01:36 51.79418 -114.29380 20765 ft 470 kts 173°
2026-05-06 01:36 51.76184 -114.28801 20003 ft 466 kts 173°
2026-05-06 01:36 51.72979 -114.28221 19250 ft 461 kts 173°
2026-05-06 01:37 51.69804 -114.27644 18506 ft 457 kts 173°
2026-05-06 01:37 51.66645 -114.27073 17641 ft 458 kts 173°
2026-05-06 01:37 51.63478 -114.26507 16921 ft 455 kts 173°
2026-05-06 01:37 51.60349 -114.25958 16240 ft 450 kts 173°
2026-05-06 01:38 51.57253 -114.25417 15599 ft 445 kts 174°
2026-05-06 01:38 51.54191 -114.24879 14963 ft 440 kts 174°
2026-05-06 01:38 51.51165 -114.24343 14228 ft 437 kts 174°
2026-05-06 01:38 51.48153 -114.23806 13453 ft 435 kts 174°
2026-05-06 01:39 51.45170 -114.23274 12785 ft 428 kts 174°
2026-05-06 01:39 51.42235 -114.22754 12144 ft 420 kts 174°
2026-05-06 01:39 51.39353 -114.22246 11501 ft 413 kts 175°
2026-05-06 01:39 51.36535 -114.21752 11043 ft 400 kts 175°
2026-05-06 01:40 51.33836 -114.21281 10913 ft 380 kts 175°
2026-05-06 01:40 51.31275 -114.20829 10744 ft 361 kts 175°
2026-05-06 01:40 51.28846 -114.20399 10616 ft 345 kts 175°
2026-05-06 01:40 51.26510 -114.19988 10485 ft 331 kts 175°
2026-05-06 01:41 51.24266 -114.19596 10346 ft 318 kts 175°
2026-05-06 01:41 51.20358 -114.18912 10108 ft 297 kts 175°
2026-05-06 01:41 51.18334 -114.18558 9977 ft 287 kts 175°
2026-05-06 01:42 51.16387 -114.18221 9835 ft 277 kts 175°
2026-05-06 01:42 51.14502 -114.17892 9665 ft 268 kts 175°
2026-05-06 01:42 51.12667 -114.17571 9263 ft 262 kts 175°
2026-05-06 01:42 51.10858 -114.17258 8619 ft 264 kts 174°
2026-05-06 01:43 51.09049 -114.16949 8237 ft 255 kts 174°
2026-05-06 01:43 51.07313 -114.16653 8106 ft 249 kts 174°
2026-05-06 01:43 51.05611 -114.16372 7984 ft 239 kts 177°
2026-05-06 01:43 51.03988 -114.16354 7754 ft 229 kts 180°
2026-05-06 01:44 51.02424 -114.16356 7462 ft 223 kts 179°
2026-05-06 01:44 51.00918 -114.16040 7221 ft 212 kts 162°
2026-05-06 01:44 50.99633 -114.15020 6961 ft 203 kts 143°
2026-05-06 01:44 50.98654 -114.13475 6723 ft 198 kts 124°
2026-05-06 01:45 50.98028 -114.11566 6489 ft 194 kts 108°
2026-05-06 01:45 50.97792 -114.09473 6250 ft 192 kts 91°
2026-05-06 01:45 50.97945 -114.07443 6021 ft 177 kts 74°
2026-05-06 01:45 50.98391 -114.05745 5808 ft 158 kts 59°
2026-05-06 01:46 50.99022 -114.04409 5638 ft 148 kts 47°
2026-05-06 01:46 50.99798 -114.03366 5466 ft 146 kts 34°
2026-05-06 01:46 51.00690 -114.02625 5296 ft 145 kts 22°
2026-05-06 01:46 51.01665 -114.02216 5116 ft 147 kts 10°
2026-05-06 01:47 51.02686 -114.02157 4952 ft 147 kts
2026-05-06 01:47 51.03706 -114.02182 4817 ft 146 kts
2026-05-06 01:47 51.04723 -114.02150 4658 ft 146 kts
2026-05-06 01:47 51.05735 -114.02144 4469 ft 145 kts
2026-05-06 01:48 51.06751 -114.02151 4266 ft 147 kts
2026-05-06 01:48 51.07773 -114.02147 4012 ft 147 kts
2026-05-06 01:48 51.08793 -114.02144 3799 ft 146 kts
2026-05-06 01:48 51.09819 -114.02145 3597 ft 147 kts
2026-05-06 01:49 51.10756 -114.02133 3559 ft 118 kts 359°
2026-05-06 01:49 51.11411 -114.02134 3557 ft 67 kts 358°
2026-05-06 01:49 51.11756 -114.02135 3558 ft 44 kts
2026-05-06 01:49 51.11991 -114.02135 3561 ft 21 kts 359°
2026-05-06 01:50 51.12079 -114.02117 3562 ft 6 kts 25°
2026-05-06 01:50 51.12089 -114.02080 3562 ft 9 kts 89°
2026-05-06 01:50 51.12029 -114.01892 3561 ft 22 kts 124°
2026-05-06 01:50 51.11914 -114.01800 3559 ft 20 kts 185°
2026-05-06 01:51 51.11769 -114.01802 3559 ft 22 kts 178°
2026-05-06 01:51 51.11605 -114.01797 3558 ft 25 kts 181°
2026-05-06 01:51 51.11431 -114.01798 3558 ft 24 kts 180°
2026-05-06 01:51 51.11263 -114.01795 3557 ft 23 kts 180°
2026-05-06 01:52 51.11096 -114.01798 3559 ft 25 kts 181°
2026-05-06 01:52 51.10922 -114.01799 3559 ft 23 kts 180°
2026-05-06 01:52 51.10775 -114.01799 3556 ft 21 kts 180°
2026-05-06 01:52 51.10624 -114.01798 3559 ft 22 kts 179°
2026-05-06 01:53 51.10487 -114.01799 3556 ft 12 kts 180°
2026-05-06 01:53 51.10416 -114.01751 3560 ft 10 kts 120°
2026-05-06 01:53 51.10380 -114.01655 3560 ft 11 kts 158°
2026-05-06 01:53 51.10291 -114.01649 3559 ft 14 kts 180°
2026-05-06 01:54 51.10185 -114.01650 3556 ft 15 kts 180°
2026-05-06 01:54 51.10086 -114.01650 3559 ft 11 kts 180°
2026-05-06 01:54 51.10024 -114.01602 3557 ft 11 kts 137°
2026-05-06 01:54 51.09989 -114.01523 3559 ft 6 kts 84°
2026-05-06 01:55 51.09992 -114.01453 3559 ft 7 kts 105°
2026-05-06 01:55 51.09981 -114.01427 3557 ft 3 kts 134°
2026-05-06 01:55 51.09962 -114.01395 3559 ft 4 kts 133°
2026-05-06 01:55 51.09945 -114.01366 3559 ft 0 kts 132°